Wind_Speed
14 13 9 4 2 2 1 4 1 7 4 2 6 2 5 6 3 4 17 19 26 23 19 19 20 21 22 24 24 23 22 20 18 16 15 14 12 12 11 10 10 10 10 10 10 9 8 8 7
14 11 2 1 2 0 3 2 6 2 6 12 10 7 5 4 5 12 14 23 24 21 19 17 20 20 20 22 21 19 18 18 17 15 14 13 11 10 11 10 9 8 9 9 9 9 7 7 6
14 3 1 2 1 3 3 3 11 11 11 5 5 7 3 4 12 14 20 26 23 21 19 18 20 20 19 19 18 18 17 16 15 14 12 11 10 10 10 9 9 9 9 8 8 6 5 6 5
7 3 2 2 4 3 3 7 13 12 7 4 10 9 6 3 16 12 25 26 24 21 19 20 20 18 17 17 17 15 15 15 14 12 11 10 9 9 9 8 8 9 9 8 7 5 4 5 5
2 1 2 2 3 2 4 10 11 6 5 8 5 7 7 6 12 27 25 25 25 22 20 20 20 18 16 16 15 13 13 12 12 11 10 9 8 8 7 7 9 10 9 8 7 6 5 6 5
2 0 3 1 2 2 2 10 8 5 8 9 13 12 6 13 25 27 25 24 23 22 22 20 20 18 17 15 13 12 11 10 10 9 8 8 7 7 7 6 7 8 7 6 7 7 6 5 6
3 2 1 2 4 2 4 10 6 8 10 7 12 8 5 15 28 24 25 23 21 21 21 20 18 16 15 13 12 11 9 9 8 8 7 7 6 6 6 6 6 5 5 5 5 5 5 5 5
2 2 3 2 3 0 8 8 8 8 5 13 12 7 9 17 29 25 24 22 21 20 20 20 19 16 14 12 11 10 9 8 7 7 6 6 5 4 4 5 4 5 5 5 4 4 4 5 7
0 2 2 3 4 2 12 6 5 5 14 4 5 8 18 29 27 26 25 22 20 19 20 20 19 17 15 13 11 10 8 8 7 6 5 3 2 1 1 2 4 4 6 4 3 4 5 6 6
3 2 5 4 4 4 11 11 12 6 14 6 10 15 30 31 28 27 25 25 24 22 21 20 20 18 16 13 11 10 9 7 6 5 5 3 2 2 1 1 1 2 3 1 1 2 4 5 5
6 4 2 4 7 5 10 10 10 11 12 10 18 23 27 30 28 26 24 25 27 24 22 22 20 18 17 14 13 11 10 8 7 8 7 6 4 4 3 3 2 1 1 3 2 1 2 3 3
5 11 8 3 2 3 12 9 9 11 3 11 18 26 27 24 25 28 27 26 25 24 24 22 20 18 17 15 14 12 12 10 8 8 9 7 4 3 3 2 1 1 1 1 3 2 2 2 3
11 5 4 11 11 8 10 13 10 12 5 15 22 25 24 22 27 27 26 25 25 25 24 22 21 19 18 17 15 14 13 11 10 11 10 8 5 4 3 3 3 2 3 2 2 2 1 1 1
6 12 10 8 11 6 12 9 7 9 15 18 24 26 23 23 28 26 26 26 27 26 25 22 21 20 19 19 18 15 13 12 13 11 11 11 8 6 5 5 5 6 5 3 2 2 1 1 1
10 9 6 11 10 6 9 8 13 12 17 21 21 23 22 21 26 27 29 28 28 26 24 23 22 21 20 20 19 17 15 13 13 13 13 13 11 8 7 5 6 6 6 5 4 3 2 2 1
4 5 7 6 12 8 15 12 16 19 20 21 21 20 21 22 27 27 26 27 27 26 25 23 22 22 22 21 20 18 15 14 13 13 13 14 13 11 10 8 7 7 7 6 5 3 3 1 2
2 7 9 4 14 7 15 13 14 23 20 21 21 21 21 20 24 28 28 28 27 27 25 25 23 24 23 22 20 20 18 17 14 13 13 14 15 15 13 11 9 9 8 6 5 1 1 2 3
8 8 5 9 6 11 16 17 5 22 23 23 23 21 21 22 25 30 29 29 28 26 24 23 24 25 24 21 21 17 17 17 15 15 16 16 17 16 16 15 12 10 7 7 5 3 1 0 1
9 7 13 9 6 6 13 16 13 19 21 21 22 22 22 24 24 27 28 27 27 26 26 26 26 27 25 24 22 20 20 18 17 17 16 13 14 15 16 15 13 11 9 7 5 3 3 1 1
17 17 17 9 6 4 7 11 10 18 24 24 24 23 24 20 21 25 29 30 30 31 31 29 29 29 30 26 26 21 22 19 19 17 18 16 14 15 15 18 14 12 9 8 5 6 3 2 2
23 23 18 8 4 5 8 12 6 13 15 18 21 21 18 23 24 22 27 33 33 32 33 34 36 36 34 29 22 19 15 16 16 19 19 20 19 18 16 17 17 14 11 8 7 7 6 3 3
23 20 21 17 9 10 4 13 8 13 18 21 21 22 24 23 23 21 25 31 35 35 33 32 32 34 35 36 27 27 26 24 24 22 21 21 23 21 18 18 16 16 11 10 9 9 8 5 4
17 14 17 19 14 12 15 9 16 8 15 22 23 25 25 26 25 25 26 35 37 35 33 32 32 33 33 35 33 30 28 25 21 20 21 25 22 25 22 20 17 17 15 13 11 11 11 8 5
11 10 8 3 9 16 22 14 16 12 19 18 22 24 24 25 25 25 34 34 33 33 32 31 32 35 34 35 39 35 32 29 23 22 21 21 21 22 25 20 19 18 16 16 13 13 13 11 8
20 17 8 10 11 14 14 13 19 9 17 19 21 25 26 27 25 25 24 26 31 33 36 35 35 35 36 37 36 39 37 33 30 28 24 21 19 20 21 23 22 19 20 18 16 15 15 15 12
28 23 9 15 16 14 7 15 13 17 20 17 19 21 22 23 23 25 24 27 31 35 37 37 37 37 38 40 40 41 39 35 34 30 28 25 23 22 23 25 24 23 21 21 19 17 17 17 15
19 25 23 12 1 5 12 15 12 11 17 22 19 18 19 23 25 27 27 32 33 33 37 40 39 39 38 40 40 38 38 37 33 33 32 28 26 22 25 26 25 25 25 24 22 19 20 20 18
14 19 10 13 14 15 8 10 14 18 20 19 20 20 20 21 22 25 24 29 36 36 38 39 41 40 43 42 40 39 40 40 40 33 33 32 31 32 23 26 25 24 24 25 26 21 21 22 19
11 20 13 12 12 10 9 11 7 16 19 22 23 22 22 21 22 23 22 30 36 36 33 38 39 39 37 39 40 39 39 39 37 35 36 37 38 38 35 32 28 26 24 25 27 26 22 25 22
24 19 26 12 12 15 8 8 2 12 11 15 19 19 19 18 20 18 21 24 28 33 34 38 39 38 41 41 39 40 38 38 38 39 39 40 39 41 41 39 33 28 26 25 28 28 23 26 24
Wind_Direction
155 158 159 183 201 213 297 85 70 133 115 49 120 152 128 34 51 112 137 147 149 143 136 131 129 126 125 127 130 129 131 132 131 128 122 121 113 106 101 97 91 88 84 82 86 93 98 102 103
157 158 185 191 247 70 79 102 124 144 118 113 90 100 74 79 79 120 126 148 145 145 141 136 135 129 126 128 126 126 127 128 129 125 123 116 108 100 94 92 87 85 84 83 85 86 97 98 108
159 161 137 193 340 8 20 81 116 120 147 137 112 73 78 95 122 130 146 148 147 146 146 143 140 133 129 128 128 128 128 127 126 124 119 115 107 96 89 85 85 81 78 76 79 88 100 116 123
168 182 188 258 9 75 30 146 135 132 121 91 122 95 85 94 137 141 144 146 147 148 149 149 143 138 134 131 130 133 131 131 128 123 122 120 110 99 88 83 71 64 74 75 78 88 96 97 121
182 236 253 247 13 30 5 157 159 140 112 138 143 119 108 93 125 139 143 148 148 151 151 150 150 147 139 136 140 140 131 130 130 128 122 115 107 96 86 72 63 68 71 82 89 89 86 93 93
207 317 239 43 26 346 62 149 142 119 123 120 119 120 100 129 139 146 149 151 151 150 152 157 157 155 147 146 150 141 137 140 133 127 121 113 105 96 87 76 68 69 73 81 83 82 82 75 70
258 227 51 3 343 2 135 145 158 136 137 128 135 114 109 148 149 149 152 154 154 154 156 162 163 162 157 157 159 154 151 146 136 127 122 115 105 95 85 76 75 79 88 83 73 69 64 59 64
278 287 354 344 346 314 142 135 140 149 103 127 143 158 157 163 156 151 154 157 158 161 165 166 169 170 167 168 171 170 163 157 143 130 125 125 112 100 82 77 68 83 81 74 69 55 45 51 64
187 294 264 227 202 193 156 132 124 117 143 173 162 148 144 154 156 153 157 164 165 169 174 175 176 179 176 175 183 180 175 171 161 147 145 139 151 130 67 88 74 84 90 79 79 49 44 46 91
207 233 223 185 225 220 173 160 151 152 159 136 99 121 142 154 160 163 165 171 176 176 180 181 183 185 184 183 188 193 187 185 190 188 189 200 212 221 231 326 65 73 90 107 116 23 24 48 76
180 230 242 218 219 196 176 175 160 147 185 183 160 150 154 163 168 170 175 179 180 182 184 185 186 188 187 188 195 198 199 198 203 202 208 224 237 260 284 285 303 306 352 52 85 89 71 49 55
211 241 248 280 139 199 189 170 180 179 148 184 166 160 160 170 175 176 180 183 185 188 190 188 188 190 194 196 202 206 203 204 209 216 215 231 254 273 300 311 269 300 312 344 81 151 104 53 40
236 238 215 255 278 250 185 190 179 195 98 149 153 161 168 174 178 183 184 186 188 193 193 192 191 196 199 204 207 209 210 211 215 220 224 231 242 267 298 302 278 304 315 320 348 145 151 137 309
206 225 264 266 266 193 188 192 198 169 134 145 160 167 174 183 183 182 187 192 194 196 197 194 196 200 203 208 212 213 215 217 221 227 229 233 238 253 288 281 281 286 300 285 320 6 47 343 334
251 259 261 235 213 203 187 199 217 156 149 156 175 171 178 187 189 194 191 196 198 200 199 198 197 201 207 212 216 218 220 221 226 231 231 233 234 243 258 272 273 280 297 259 263 322 322 46 7
227 212 226 158 192 186 178 248 211 167 171 169 175 182 183 190 196 201 201 201 202 203 203 201 200 204 209 213 217 219 224 224 230 233 235 238 239 245 256 263 265 266 276 274 300 327 354 39 30
239 227 216 211 192 156 199 255 205 181 184 172 181 188 189 192 201 203 205 205 205 204 204 205 204 207 210 214 218 222 227 230 233 238 244 241 245 243 248 253 256 272 271 262 267 304 350 34 69
215 222 230 231 171 190 207 241 197 189 190 184 186 189 195 194 203 202 205 207 207 206 206 206 207 209 211 212 218 221 227 231 233 238 249 254 243 238 241 244 246 263 252 260 261 221 240 41 42
219 236 239 237 238 223 226 245 218 195 201 195 190 193 198 203 199 203 207 207 208 208 207 207 206 209 207 208 210 215 220 224 231 237 239 241 233 233 238 237 239 247 248 256 252 218 234 247 282
225 234 242 257 260 279 251 259 227 197 207 199 194 194 203 199 197 201 204 207 208 208 210 209 209 209 211 210 208 207 214 223 225 230 234 237 234 236 241 233 232 239 237 251 236 212 191 173 169
220 223 219 232 337 240 255 255 209 213 213 207 210 208 207 199 198 201 202 205 209 210 210 210 210 211 212 208 207 211 216 221 224 229 233 235 238 238 241 238 234 234 238 242 237 230 217 194 177
222 219 237 244 258 250 229 265 213 208 206 208 209 207 208 207 204 204 205 209 209 212 211 212 213 209 213 212 205 204 210 216 223 225 229 231 237 237 238 243 233 232 235 240 247 239 224 212 189
227 207 221 239 247 263 236 250 248 207 213 216 212 212 211 209 203 204 205 207 211 212 212 210 210 212 210 210 208 210 217 223 226 227 227 234 235 235 238 235 236 240 239 243 248 240 229 235 218
189 173 193 210 241 239 239 233 249 210 216 217 217 220 215 212 209 210 212 211 210 211 211 211 207 211 211 210 213 212 216 218 222 227 228 231 234 233 231 229 233 240 237 239 243 242 230 233 236
196 181 186 218 219 238 220 229 240 232 218 218 210 216 216 211 211 212 211 209 208 206 206 204 204 208 209 211 213 215 219 220 220 223 229 229 227 222 221 225 233 235 236 235 236 237 231 230 231
201 199 205 214 233 244 195 237 237 223 234 231 233 224 219 213 211 214 211 208 209 207 204 203 204 208 207 209 213 217 219 219 223 227 227 226 226 226 223 227 230 232 233 229 233 232 230 226 226
196 211 216 256 150 262 223 247 264 239 224 217 221 225 217 212 212 214 214 211 210 207 205 204 203 205 205 209 212 215 216 216 219 221 225 229 228 229 226 226 231 234 230 226 228 224 228 227 224
186 180 185 215 232 238 219 247 234 198 213 212 215 213 221 219 215 218 216 214 213 210 207 204 204 203 205 206 210 212 214 217 218 219 220 222 225 232 224 226 228 227 228 226 225 221 225 225 222
181 189 206 202 221 227 247 246 208 219 213 213 216 213 215 217 218 217 215 214 214 213 207 204 203 205 204 205 208 211 213 214 216 216 221 225 229 233 230 229 226 226 225 226 225 222 221 222 222
203 196 197 204 187 225 259 252 263 228 221 228 225 223 228 226 225 223 220 214 210 210 207 205 205 204 206 207 206 209 213 212 212 215 217 223 224 231 233 231 229 227 226 227 226 223 220 221 220
Height
785 788 790 792 805 798 793 788 775 782 781 776 774 780 786 796 798 814 810 810 814 818 821 824 826 828 830 831 834 836 837 838 839 841 842 843 843 844 846 845 846 846 847 847 847 848 849 849 850
785 786 790 789 799 806 795 781 785 779 779 777 779 784 789 802 798 805 809 813 816 820 823 826 828 831 832 834 836 838 839 840 842 843 844 845 846 847 847 848 848 848 849 849 849 850 850 851 851
784 785 790 792 791 799 792 779 780 778 776 777 785 784 790 801 802 805 810 814 818 821 824 827 830 833 834 836 838 840 841 842 844 845 846 848 848 848 849 849 850 850 850 850 850 850 851 852 852
783 785 786 790 789 780 779 778 775 779 778 778 781 794 795 799 802 806 812 815 819 822 825 829 831 834 836 838 840 841 843 844 845 847 849 849 850 850 851 851 852 852 852 852 852 851 852 853 853
783 783 788 787 784 776 769 768 772 777 780 782 782 797 802 803 806 809 814 818 819 824 827 831 833 836 838 839 841 843 845 846 848 849 850 851 851 852 852 852 852 854 853 853 853 853 853 853 853
785 785 792 787 783 773 767 768 771 776 782 786 789 792 801 805 807 811 815 819 822 825 829 833 835 837 839 840 843 845 847 848 850 851 851 852 852 853 853 853 854 854 855 854 855 854 854 854 855
783 787 792 785 784 776 769 764 773 777 783 787 784 796 804 806 808 812 817 821 824 827 830 833 836 839 840 842 844 846 848 849 851 852 852 853 854 854 854 854 855 855 855 855 856 856 856 856 856
778 781 783 781 781 778 764 765 768 773 782 781 783 798 804 803 808 812 817 822 824 827 830 833 836 839 841 844 845 847 849 850 852 853 853 854 855 855 856 855 856 856 856 857 857 857 857 858 858
777 786 787 780 780 769 760 767 768 770 778 779 781 784 789 802 808 812 816 822 825 827 830 833 835 838 841 844 847 848 850 851 852 854 854 856 856 856 856 856 856 857 858 858 858 858 858 858 858
780 787 774 764 762 763 760 761 768 775 779 783 786 787 795 802 807 811 814 819 822 826 829 832 835 838 841 845 847 849 851 852 853 854 855 856 856 856 856 856 857 858 859 859 859 858 858 858 859
776 777 763 758 754 753 758 761 760 771 782 777 783 788 795 801 805 810 814 817 819 824 828 830 833 837 840 844 846 848 850 851 852 853 854 855 856 856 857 857 857 858 858 858 858 858 858 858 859
779 766 760 754 750 753 759 755 763 766 767 765 777 784 791 798 802 805 810 815 820 823 825 829 832 835 839 842 845 847 849 850 851 853 853 855 856 856 856 857 857 857 857 859 857 857 857 858 858
773 763 757 753 750 749 751 760 760 766 763 767 777 787 792 796 799 805 809 814 818 820 823 827 830 833 837 840 843 845 847 849 851 851 853 854 855 856 856 856 857 857 857 857 858 857 858 858 859
755 760 756 750 747 746 754 758 761 763 765 773 778 783 789 794 797 803 807 810 814 817 821 825 828 831 835 838 840 843 846 848 849 851 852 853 854 855 856 856 856 856 856 857 857 858 858 858 859
751 763 756 749 746 748 748 768 764 760 765 773 781 780 786 792 797 800 802 806 811 815 819 822 825 830 833 836 838 841 844 846 848 849 850 852 853 855 855 856 857 857 856 856 856 857 859 859 859
757 758 766 745 744 744 748 762 753 756 761 770 777 781 783 788 793 798 801 804 809 812 815 819 823 826 830 833 836 839 842 844 846 847 849 850 852 853 854 855 856 856 857 856 858 856 858 858 859
762 762 762 752 740 744 749 752 742 749 756 765 770 775 779 784 789 793 797 801 805 808 812 816 819 823 827 831 834 837 839 842 844 845 846 847 849 851 852 853 854 855 856 856 857 858 858 859 859
772 770 759 757 741 741 750 748 746 745 749 755 762 768 773 775 777 785 792 797 801 805 809 813 816 820 824 828 832 835 837 839 841 842 843 844 846 848 850 851 853 854 855 856 856 857 857 859 859
759 762 757 746 738 742 744 741 742 744 746 752 756 761 765 765 772 782 788 793 798 802 805 807 811 814 819 823 827 830 832 835 838 839 841 842 844 845 847 849 851 852 854 855 855 856 856 858 858
760 762 758 749 743 746 740 742 736 739 738 741 746 754 755 763 767 774 780 786 790 794 797 801 804 809 813 818 821 826 828 831 834 836 838 840 841 843 844 846 848 851 852 852 854 855 857 858 858
756 757 754 755 747 741 744 746 746 737 738 740 741 745 753 753 757 764 772 776 782 786 790 793 795 800 806 813 819 823 826 828 830 833 835 837 839 840 842 843 846 848 850 852 852 854 855 857 857
755 744 750 756 763 769 742 759 747 735 741 738 737 739 740 745 751 756 763 768 772 776 782 788 793 796 800 806 812 815 817 821 824 828 831 833 836 838 839 840 843 845 848 849 850 851 853 854 856
744 738 747 749 756 758 750 759 731 733 739 733 729 728 731 732 738 745 750 755 761 768 775 781 787 792 796 800 805 809 813 816 821 824 826 828 832 834 836 838 840 842 844 846 847 849 851 852 855
729 741 748 754 752 767 744 752 729 731 722 719 718 719 723 725 729 734 741 748 754 763 770 776 780 784 790 794 798 802 805 810 815 818 821 823 826 829 831 834 837 839 841 843 845 846 849 851 852
730 741 767 779 771 754 728 750 725 706 702 698 705 708 709 714 721 725 733 740 745 752 757 764 770 775 781 786 791 795 799 804 808 812 816 820 822 823 825 829 832 835 837 840 842 843 846 848 850
725 726 739 767 752 745 739 736 713 693 691 692 691 691 696 707 711 716 720 727 734 740 746 753 759 765 771 776 781 786 791 797 801 805 810 813 816 817 820 823 827 830 833 836 838 841 843 844 847
720 724 710 733 749 748 721 708 697 691 685 684 686 687 691 694 699 704 709 715 721 730 735 741 748 753 761 767 773 778 784 788 792 797 801 807 810 813 814 818 821 824 828 830 833 836 838 840 843
701 706 743 733 756 757 723 724 700 690 686 680 681 683 681 681 689 692 697 703 710 717 723 732 738 743 747 755 763 768 772 777 783 789 793 797 802 806 810 812 815 818 821 825 827 830 833 835 838
707 708 708 712 719 730 732 703 677 677 671 672 668 667 669 672 674 679 685 691 698 707 715 720 727 734 742 747 752 759 763 768 775 780 784 788 793 798 802 805 809 812 814 818 821 824 827 829 833
678 689 696 715 732 718 709 699 665 663 662 661 660 659 662 664 666 670 674 681 690 696 703 708 716 723 728 735 742 747 754 759 764 769 773 778 783 788 793 798 802 806 809 811 814 819 822 823 827